Skopje

Airport
ICAO code: 
LWSK
Summary
ICAO Region: 
EUR
Location: 
Skopje,
Coordinates: 
Aerial View: 
41° 57' 42.065" N, 21° 37' 19.891" E
Airport WX: 
Fog
Metar
Observation
LWSK 251300Z 00000KT 9999 FEW040 33/13 Q1014 NOSIG
Station
Skopje-Petrovec
Date/Time
2022-05-25 13:00:00
Wind direction
Wind speed
00 kts
Lowest cloud amount
few clouds
Temperature
33°C
Dew point
13°C
Humidity
29%
QNH
1014 hPa
Weather condition
n/a

Description

Skopje Airport, or Skopje "Alexander the Great" Airport is the largest and busiest international airport in the Republic of Macedonia. Located 17 km southeast of the national capital, Skopje.

Climatology

Humid “subtropical” climate (Köppen climate classification Cfa) - characterized by hot, humid summers and cool winters. Significant amounts of precipitation occur in all seasons in most areas. Winter rainfall (and sometimes snowfall) is associated with large storms that the westerlies steer from west to east. Most summer rainfall occurs during thunderstorms.

Runways

Designator Length Width Surface Rops
16/34 2450 43 ASP Yes/Yes
Airport map: 
Aerial View: 

SKYbrary Partners:

Safety knowledge contributed by: